Location: Dana
(41.8364°N, 106.7042°W)
Time: 11:38:57
(UTC+00:00)

Tiros 1 despin weight - Pass Details

Date: 11 May 2026
Orbit: 554 x 591 km, 48.2° (Epoch: 10 June)

Event Time Altitude Azimuth Distance (km) Brightness Sun altitude
Rises 15:13:44 0° 266° (W) 2,736 ? 36.0°
Reaches altitude 10° 15:16:05 10° 274° (W) 1,838 ? 36.5°
Maximum altitude 15:20:05 42° 346° (NNW) 799 ? 37.2°
Drops below altitude 10° 15:24:04 10° 58° (ENE) 1,834 ? 37.9°
Sets 15:26:25 0° 66° (ENE) 2,730 ? 38.4°
